Location: Ford County Road and Bridge Department
(37.7686°N, 99.9762°W)
Time: 01:10:27
(UTC+00:00)

Cosmos 1269 Rocket - Pass Details

Date: 18 January 2020
Orbit: 773 x 779 km, 74.1° (Epoch: 19 February)

Event Time Altitude Azimuth Distance (km) Brightness Sun altitude
Rises 01:46:16 0° 341° (NNW) 3,256 7.4 -23.3°
Reaches altitude 10° 01:48:40 10° 341° (NNW) 2,325 6.6 -23.8°
Maximum altitude 01:53:57 88° 257° (WSW) 779 3.9 -24.8°
Enters shadow 01:58:00 17° 164° (SSE) 1,851 5.9 -25.6°
